THORAD DELTA 1 DEB, 8151

Orbit data source: Space-Track

THORAD DELTA 1 DEB, 8151 is space debris in SSO originally from a launch on Fri, 15 Nov 1974 UTC launched from the Air Force Western Test Range (AFWTR). Debris objects in space refer to the collection of defunct objects orbiting the Earth. Examples of debris include non-operational satellites, rocket bodies, and fragments generated from explosions, collisions, or faulty payload assembly.

Loading next visibility...
Identifier
8151, 1974-089R
Orbit
SSO
Country
Flag of USUS
Related business
Manufacturer
Unknown
Mission
Spacecraft
Bus & Motor
Unknown
Mass
Unknown
Launch date (UTC)
1974-11-15 (51 years ago)
Launch vehicle
Unknown
Launch site
Air Force Western Test Range (AFWTR)
Object type
Payload
Rocket body
Debris
Shape & HBR
Unknown shape, 0.2 m
Radar Cross Section
Small (<0.1 m²)

Expand to show TLE details & history
Last TLE update: 12 hours ago

TLE from 12 hours ago
0 THORAD DELTA 1 DEB
1 08151U 74089R   26035.23418520  .00000155  00000-0  70103-3 0  9999
2 08151 101.7694 145.3847 0335679 316.1060  71.7849 12.81281576391760
Epoch: 2026-02-04T05:37Z
TLE epoch observation values (Epoch: 2026-02-04T05:37:13.601Z)
Latitude
30.90671°
Longitude
-80.45459°
Altitude
1,266.983 km
Speed
7.259 km/s
True Right ascension
09h 13m 01s
True Declination
30° 45' 56"
Sunlit
Object was in full shadow at epoch
Visualization orbit readout
Latitude
Unknown
Longitude
Unknown
Altitude
Unknown
Speed
Unknown
Apparent Right ascension
Unknown
Apparent Declination
Unknown
Sunlit
N/A
Visualization observer readout
Local Sidereal Time
19:44:27
Azimuth
Unknown
Elevation
Unknown
Doppler factor
Unknown
Orbital elements
Apogee altitude
1,592.699 km
Perigee altitude
1,074.95 km
Semi-major axis
7,711.962 km
Eccentricity
0.03357
Inclination
101.7694°
RAAN
145.3847°
Arg. of periapsis
316.106°
True anomaly
75.4847°
Mean anomaly
71.7849°
Eccentric anomaly
73.63023°
Mean motion
3.20476 °/min
Orbital period
112.33 mins
BSTAR
0.00070103
Loading maneuver chart data...
Computing Atmospheric mass density...

Documentation

Showing up to 5 results
|